Алтайский

Россия / Алтайский край     51°49′14″N   85°16′38″E
темп.,
°C
ветер,
м/с
пор.,
м/с
влажн.,
%
обл.,
%
осадки,
мм/ч
давл.,
гПа
погр.,
м
28 февраля, вс
вс2800:00−23ю229053 0.0 104120
03:00−23ю22820 0.0 104121
06:00−22ю23800 0.0 104128
09:00−17ю237632 0.0 1038120
12:00−10ю256564 0.0 1034615
15:00−9ю2663100 0.0 1032723
18:00−11ююв2282100 0.0 102929
21:00−11ю3381100 0.0 102891
1 марта, пн
пн100:00−11ю3481100 0.0 102598
03:00−10ююв3381100 0.0 102391
06:00−9ю3482100 0.0 1020114
09:00−6ю41371100 0.0 1019674
12:00−1ююз41364100 0.0 10161121
15:00+1юз41368100 0.0 10161354
18:00−2ююз3975100 0.0 1016359
21:00−5ююз41574100 0.0 1015715
2 марта, вт
вт200:00−5ююз41676100 0.1 1015926
03:00−5ююз4157486 0.0 1015761
06:00−6ююз4157387 0.0 1017691
09:00−5ююз3137248 0.0 10181269
12:00−1зюз376766 0.0 10181232
15:00−2сз2378100 0.1 1017541
18:00−5ююз1197100 0.6 101722
21:00−5ююз1197100 1.2 101627
3 марта, ср
ср300:00−5ююз1295100 2.1 101548
03:00−7ююз228898 0.4 101532
06:00−7ююз229699 0.6 101656
09:00−5ююз1292100 0.5 1016147
12:00−3ссз2294100 2.3 1017325
15:00−6сз2392100 1.9 1018460
18:00−10зсз0197100 2.4 102322
21:00−12всв1197100 0.3 102620
4 марта, чт
чт400:00−14ююв1295100 0.3 102720
03:00−12ю1287100 0.0 102620
06:00−12ю228498 0.0 102725
09:00−8ю2380100 0.0 1026121
12:00−3ю2468100 0.0 1024560
15:00−2ююз136499 0.0 1022681
18:00−6ююв1182100 0.0 102321
21:00−9ю2376100 0.0 102325